Location: Bartlow
(52.0833°N, 0.3167°E)
Time: 19:37:31
(UTC+00:00)

IRS-1D - Pass Details

Date: 26 September 2023
Orbit: 738 x 815 km, 98.7° (Epoch: 08 December)

Event Time Altitude Azimuth Distance (km) Brightness Sun altitude
Rises 03:14:08 0° 17° (NNE) 3,357 7.5 -23.7°
Reaches altitude 10° 03:16:32 10° 20° (NNE) 2,419 6.8 -23.4°
Maximum altitude 03:21:52 64° 102° (ESE) 899 3.9 -22.7°
Enters shadow 03:25:02 24° 178° (S) 1,612 4.9 -22.3°
